period_start,C,m1,H,J0,J1,J2,J3,J4,J5,JA,JB,JC,JD,JJ,JK,JN,#
2015-12-25 00:00:54,0.22,4.98,0.00,12.55,17.17,21.00,14.96,51.73,1010.76,2071.61,2189.34,2035.36,2279.83,599.30,613.55,19.18,0000 0000 0000 0000 000000
2015-12-25 00:05:55,0.26,4.99,0.00,12.56,17.17,20.99,15.17,51.77,1010.76,2071.84,2186.89,2033.50,2277.79,599.84,614.29,19.23,0000 0000 0000 0000 000000
2015-12-25 00:10:57,0.22,5.00,0.00,12.55,17.17,20.99,15.01,51.58,1010.71,2071.88,2184.44,2031.82,2275.80,599.79,614.02,19.28,0000 0000 0000 0000 000000
2015-12-25 00:15:58,0.20,5.01,0.00,12.53,17.17,21.00,15.07,51.73,1010.37,2071.73,2181.98,2030.05,2273.78,599.67,613.81,19.33,0000 0000 0000 0000 000000
2015-12-25 00:21:00,0.26,5.02,0.00,12.52,17.17,21.03,15.04,52.16,1010.49,2071.86,2179.34,2028.13,2271.68,599.35,613.46,19.38,0000 0000 0000 0000 000000
2015-12-25 00:26:01,0.27,5.04,0.00,12.52,17.17,21.08,15.16,52.13,1010.18,2071.85,2176.63,2026.12,2269.26,600.40,614.38,19.43,0000 0000 0000 0000 000000
2015-12-25 00:31:02,0.27,5.05,0.00,12.55,17.17,21.05,15.17,52.29,1009.78,2071.87,2173.82,2023.85,2266.63,600.13,613.79,19.48,0000 0000 0000 0000 000000
2015-12-25 00:36:03,0.30,5.06,0.00,12.56,17.17,21.01,15.13,52.02,1009.51,2071.85,2170.78,2021.50,2263.94,599.89,613.33,19.53,0000 0000 0000 0000 000000
2015-12-25 00:41:05,0.23,5.08,0.00,12.52,17.17,21.02,15.14,52.15,1009.30,2071.79,2168.09,2019.47,2261.58,600.17,613.61,19.58,0000 0000 0000 0000 000000
2015-12-25 00:46:06,0.26,5.09,0.00,12.52,17.17,21.07,15.15,52.11,1008.91,2071.71,2165.32,2017.52,2259.15,600.06,613.28,19.63,0000 0000 0000 0000 000000
2015-12-25 00:51:07,0.32,5.10,0.00,12.53,17.17,21.02,15.10,52.18,1008.60,2071.73,2162.17,2015.09,2256.53,599.91,613.00,19.69,0000 0000 0000 0000 000000
2015-12-25 00:56:08,0.31,5.12,0.00,12.50,17.17,21.10,15.11,52.14,1008.30,2071.64,2158.90,2012.27,2253.54,600.07,612.99,19.74,0000 0000 0000 0000 000000
2015-12-25 01:01:09,0.36,5.14,0.00,12.50,17.17,21.07,15.08,52.76,1007.86,2071.84,2155.54,2009.70,2250.68,599.94,612.60,19.79,0000 0000 0000 0000 000000
2015-12-25 01:06:10,0.33,5.16,0.00,12.51,17.17,21.03,15.10,52.88,1007.83,2071.90,2152.12,2007.15,2247.69,600.08,612.68,19.84,0000 0000 0000 0000 000000
2015-12-25 01:11:12,0.31,5.17,0.00,12.50,17.16,21.08,15.10,52.70,1007.97,2071.89,2148.95,2004.59,2244.78,600.25,612.96,19.89,0000 0000 0000 0000 000000
2015-12-25 01:16:13,0.26,5.19,0.00,12.46,17.15,21.05,15.06,52.42,1008.31,2071.88,2146.27,2002.42,2242.27,599.91,612.88,19.94,0000 0000 0000 0000 000000
2015-12-25 01:21:14,0.27,5.20,0.00,12.46,17.14,21.04,15.11,52.40,1008.31,2071.87,2143.32,2000.32,2239.74,600.15,613.12,19.99,0000 0000 0000 0000 000000
2015-12-25 01:26:16,0.31,5.21,0.00,12.44,17.14,21.04,15.13,52.34,1008.43,2071.92,2140.26,1998.03,2237.33,600.03,613.14,20.04,0000 0000 0000 0000 000000
2015-12-25 01:31:17,0.29,5.23,0.00,12.42,17.14,21.03,15.10,52.52,1008.58,2071.96,2137.35,1995.64,2234.73,600.18,613.43,20.09,0000 0000 0000 0000 000000
2015-12-25 01:36:19,0.26,5.24,0.00,12.40,17.14,20.98,15.10,52.39,1008.62,2071.96,2134.82,1993.34,2232.20,600.05,613.33,20.14,0000 0000 0000 0000 000000
2015-12-25 01:41:20,0.25,5.26,0.00,12.38,17.12,21.00,15.12,52.39,1008.78,2071.98,2132.12,1991.31,2230.00,599.59,613.04,20.19,0000 0000 0000 0000 000000
2015-12-25 01:46:21,0.25,5.27,0.00,12.35,17.12,20.99,15.09,51.98,1008.80,2071.97,2129.49,1989.46,2227.84,600.07,613.69,20.24,0000 0000 0000 0000 000000
2015-12-25 01:51:22,0.27,5.28,0.00,12.34,17.12,20.97,15.15,52.27,1008.71,2071.98,2126.77,1987.33,2225.45,600.04,613.56,20.29,0000 0000 0000 0000 000000
2015-12-25 01:56:24,0.32,5.30,0.00,12.38,17.10,21.02,15.14,52.70,1008.50,2071.98,2123.67,1984.94,2222.74,600.20,613.45,20.34,0000 0000 0000 0000 000000
2015-12-25 02:01:25,0.27,5.31,0.00,12.37,17.09,20.95,15.15,52.64,1008.78,2071.98,2120.89,1982.75,2220.09,600.20,613.66,20.39,0000 0000 0000 0000 000000
2015-12-25 02:06:26,0.30,5.33,0.00,12.38,17.09,20.96,15.14,52.42,1008.78,2071.97,2118.11,1980.36,2217.48,600.04,613.48,20.44,0000 0000 0000 0000 000000
2015-12-25 02:11:28,0.31,5.34,0.00,12.36,17.09,20.97,15.19,52.75,1008.33,2071.97,2114.77,1977.96,2214.71,600.64,613.90,20.49,0000 0000 0000 0000 000000
2015-12-25 02:16:29,0.39,5.36,0.00,12.31,17.08,20.97,15.11,53.00,1007.99,2071.98,2111.35,1975.13,2211.64,599.66,612.80,20.54,0000 0000 0000 0000 000000
2015-12-25 02:21:30,0.32,5.38,0.00,12.31,17.07,20.89,15.13,52.76,1008.26,2071.99,2108.02,1972.24,2208.40,600.19,613.54,20.59,0000 0000 0000 0000 000000
2015-12-25 02:26:32,0.26,5.40,0.00,12.31,17.07,20.92,15.21,52.71,1008.55,2071.99,2105.33,1970.07,2205.84,600.25,613.69,20.64,0000 0000 0000 0000 000000
2015-12-25 02:31:33,0.34,5.41,0.00,12.26,17.06,20.94,15.13,52.70,1008.39,2071.99,2102.30,1967.58,2203.11,599.97,613.42,20.69,0000 0000 0000 0000 000000
2015-12-25 02:36:34,0.24,5.43,0.00,12.25,17.04,20.90,15.15,52.56,1008.33,2071.98,2099.84,1965.42,2200.68,600.14,613.47,20.74,0000 0000 0000 0000 000000
2015-12-25 02:41:35,0.25,5.44,0.00,12.24,17.04,20.91,15.14,52.74,1008.55,2071.99,2097.49,1963.56,2198.55,599.95,613.54,20.79,0000 0000 0000 0000 000000
2015-12-25 02:46:37,0.22,5.45,0.00,12.23,17.02,20.91,15.20,52.39,1008.92,2071.99,2095.24,1961.82,2196.51,600.03,614.09,20.84,0000 0000 0000 0000 000000
2015-12-25 02:51:38,0.22,5.46,0.00,12.22,17.02,20.93,15.15,52.39,1008.82,2071.99,2093.03,1960.15,2194.61,600.30,614.00,20.89,0000 0000 0000 0000 000000
2015-12-25 02:56:39,0.23,5.47,0.00,12.23,17.02,20.87,15.13,52.25,1008.77,2071.99,2090.65,1958.42,2192.72,600.16,613.89,20.94,0000 0000 0000 0000 000000
2015-12-25 03:01:40,0.22,5.48,0.00,12.20,17.00,20.93,15.11,52.23,1008.42,2071.99,2088.30,1956.76,2190.84,600.37,614.12,20.99,0000 0000 0000 0000 000000
2015-12-25 03:06:42,0.20,5.50,0.00,12.19,16.99,20.82,15.15,52.56,1008.02,2071.99,2086.09,1955.11,2189.26,600.11,613.46,21.04,0000 0000 0000 0000 000000
2015-12-25 03:11:43,0.24,5.51,0.00,12.21,16.99,20.85,15.18,52.61,1007.62,2072.00,2083.63,1953.50,2187.24,600.35,613.45,21.09,0000 0000 0000 0000 000000
2015-12-25 03:16:45,0.28,5.52,0.00,12.22,16.99,20.85,15.09,53.03,1007.08,2072.00,2080.91,1951.42,2185.00,600.22,612.77,21.14,0000 0000 0000 0000 000000
2015-12-25 03:21:46,0.31,5.54,0.00,12.20,16.98,20.85,15.10,53.43,1006.61,2072.02,2077.97,1949.14,2182.35,600.21,612.66,21.19,0000 0000 0000 0000 000000
2015-12-25 03:26:47,0.32,5.55,0.00,12.16,16.97,20.88,15.12,53.71,1006.36,2072.01,2075.15,1946.66,2179.57,600.14,612.59,21.24,0000 0000 0000 0000 000000
2015-12-25 03:31:49,0.34,5.57,0.00,12.12,16.97,20.81,15.15,53.52,1006.33,2072.02,2071.80,1943.66,2176.52,599.60,612.09,21.29,0000 0000 0000 0000 000000
2015-12-25 03:36:50,0.25,5.58,0.00,12.08,16.95,20.84,15.15,53.55,1006.30,2072.04,2069.11,1941.77,2174.33,599.93,612.55,21.34,0000 0000 0000 0000 000000
2015-12-25 03:41:51,0.31,5.60,0.00,12.06,16.94,20.82,15.13,53.82,1005.90,2072.15,2066.44,1939.81,2172.09,600.59,612.94,21.39,0000 0000 0000 0000 000000
2015-12-25 03:46:53,0.40,5.62,0.00,12.04,16.92,20.85,15.10,53.98,1005.74,2072.54,2062.92,1937.20,2169.33,599.93,612.26,21.44,0000 0000 0000 0000 000000
2015-12-25 03:51:54,0.42,5.64,0.00,11.96,16.91,20.83,15.14,53.71,1005.42,2072.88,2059.44,1934.41,2166.16,600.02,612.40,21.49,0000 0000 0000 0000 000000
2015-12-25 03:56:56,0.36,5.66,0.00,11.90,16.89,20.82,15.15,53.86,1005.41,2072.97,2056.01,1931.61,2163.15,599.92,612.28,21.54,0000 0000 0000 0000 000000
2015-12-25 04:01:57,0.45,5.68,0.00,11.86,16.87,20.75,15.16,53.61,1005.61,2072.98,2052.42,1928.27,2159.45,600.08,612.71,21.59,0000 0000 0000 0000 000000
2015-12-25 04:06:58,0.34,5.70,0.00,11.81,16.85,20.75,15.14,53.80,1005.76,2072.99,2049.27,1925.27,2156.34,599.90,612.76,21.64,0000 0000 0000 0000 000000
2015-12-25 04:11:59,0.38,5.72,0.00,11.76,16.83,20.73,15.17,53.73,1005.79,2072.99,2045.90,1922.22,2152.98,599.93,612.95,21.69,0000 0000 0000 0000 000000
2015-12-25 04:17:01,0.35,5.73,0.00,11.72,16.80,20.67,15.20,53.97,1005.83,2072.99,2042.51,1919.64,2149.80,599.96,613.02,21.74,0000 0000 0000 0000 000000
2015-12-25 04:22:02,0.44,5.76,0.00,11.66,16.77,20.67,15.18,53.74,1005.95,2073.01,2038.89,1916.38,2146.14,599.97,613.14,21.79,0000 0000 0000 0000 000000
2015-12-25 04:27:04,0.36,5.78,0.00,11.61,16.74,20.73,15.10,53.81,1006.13,2073.03,2035.25,1913.71,2142.87,600.07,613.55,21.84,0000 0000 0000 0000 000000
2015-12-25 04:32:05,0.28,5.79,0.00,11.56,16.71,20.65,15.14,53.67,1006.35,2073.06,2032.48,1911.29,2140.28,599.99,613.72,21.89,0000 0000 0000 0000 000000
2015-12-25 04:37:06,0.45,5.81,0.00,11.52,16.68,20.58,15.12,53.72,1006.39,2073.28,2029.23,1908.29,2137.07,599.81,613.56,21.94,0000 0000 0000 0000 000000
2015-12-25 04:42:07,0.43,5.83,0.00,11.50,16.64,20.54,15.25,53.66,1006.48,2073.88,2026.12,1905.49,2134.03,600.18,614.09,21.99,0000 0000 0000 0000 000000
2015-12-25 04:47:09,0.36,5.85,0.00,11.48,16.61,20.47,15.22,53.38,1006.69,2073.95,2023.19,1902.51,2130.77,600.34,614.45,22.04,0000 0000 0000 0000 000000
2015-12-25 04:52:10,0.33,5.87,0.00,11.44,16.58,20.47,15.17,53.09,1006.85,2073.95,2020.38,1899.93,2128.05,600.17,614.40,22.09,0000 0000 0000 0000 000000
2015-12-25 04:57:11,0.28,5.89,0.00,11.40,16.55,20.46,15.15,52.88,1006.97,2073.98,2017.82,1897.64,2125.56,599.65,614.06,22.14,0000 0000 0000 0000 000000
2015-12-25 05:02:13,0.27,5.90,0.00,11.38,16.51,20.39,15.16,52.80,1007.27,2073.99,2015.39,1895.57,2123.24,600.14,614.81,22.19,0000 0000 0000 0000 000000
2015-12-25 05:07:14,0.29,5.91,0.00,11.32,16.48,20.39,15.24,52.84,1007.50,2073.99,2012.92,1893.46,2120.87,600.20,615.13,22.24,0000 0000 0000 0000 000000
2015-12-25 05:12:15,0.31,5.93,0.00,11.32,16.45,20.29,15.14,52.56,1007.86,2073.99,2010.29,1891.21,2118.08,599.93,615.02,22.29,0000 0000 0000 0000 000000
2015-12-25 05:17:17,0.26,5.94,0.00,11.29,16.42,20.23,15.19,52.39,1008.46,2073.99,2007.70,1889.11,2115.64,600.00,615.70,22.34,0000 0000 0000 0000 000000
2015-12-25 05:22:18,0.27,5.96,0.00,11.31,16.39,20.26,15.16,52.01,1009.19,2074.00,2005.27,1887.16,2113.47,599.89,615.90,22.39,0000 0000 0000 0000 000000
2015-12-25 05:27:19,0.33,5.97,0.00,11.31,16.36,20.21,15.17,52.10,1009.35,2074.01,2002.30,1884.82,2111.00,600.17,616.30,22.44,0000 0000 0000 0000 000000
2015-12-25 05:32:21,0.27,5.99,0.00,11.33,16.33,20.13,15.27,52.21,1009.69,2074.01,1999.86,1882.70,2108.76,599.85,616.13,22.49,0000 0000 0000 0000 000000
2015-12-25 05:37:22,0.26,6.00,0.00,11.37,16.31,20.07,15.14,52.17,1009.27,2074.02,1997.28,1880.79,2106.52,599.76,615.69,22.54,0000 0000 0000 0000 000000
2015-12-25 05:42:23,0.32,6.02,0.00,11.43,16.28,20.07,15.16,52.02,1009.08,2074.08,1994.75,1878.71,2104.28,599.93,615.56,22.59,0000 0000 0000 0000 000000
2015-12-25 05:47:25,0.34,6.03,0.00,11.42,16.27,20.09,15.05,52.07,1009.06,2074.09,1991.69,1876.18,2101.57,599.37,615.13,22.64,0000 0000 0000 0000 000000
2015-12-25 05:52:26,0.22,6.05,0.00,11.42,16.24,20.01,15.20,52.25,1008.81,2074.18,1989.48,1874.34,2099.49,599.92,615.49,22.69,0000 0000 0000 0000 000000
2015-12-25 05:57:28,0.25,6.06,0.00,11.49,16.23,20.02,15.18,52.31,1008.40,2074.19,1987.38,1872.72,2097.49,599.78,614.97,22.74,0000 0000 0000 0000 000000
2015-12-25 06:02:29,0.29,6.08,0.00,11.54,16.22,20.02,15.11,52.42,1008.63,2074.35,1985.00,1870.86,2095.40,599.55,614.77,22.79,0000 0000 0000 0000 000000
2015-12-25 06:07:30,0.31,6.09,0.00,11.54,16.20,20.07,15.14,52.33,1008.82,2074.76,1982.86,1869.01,2093.31,599.82,615.10,22.84,0000 0000 0000 0000 000000
2015-12-25 06:12:32,0.23,6.10,0.00,11.55,16.19,20.04,15.09,52.11,1008.44,2074.87,1980.63,1867.25,2091.50,599.67,614.66,22.89,0000 0000 0000 0000 000000
2015-12-25 06:17:33,0.26,6.12,0.00,11.60,16.19,20.06,15.18,52.33,1007.90,2074.90,1978.37,1865.64,2089.67,600.12,614.70,22.94,0000 0000 0000 0000 000000
2015-12-25 06:22:34,0.26,6.13,0.00,11.60,16.17,20.05,15.23,52.51,1007.69,2074.95,1975.98,1863.91,2087.54,600.32,614.79,22.99,0000 0000 0000 0000 000000
2015-12-25 06:27:35,0.30,6.14,0.00,11.60,16.17,20.04,15.09,52.67,1007.07,2074.98,1973.43,1861.81,2085.21,600.21,614.05,23.04,0000 0000 0000 0000 000000
2015-12-25 06:32:37,0.33,6.16,0.00,11.63,16.17,20.01,15.11,52.98,1006.49,2074.99,1970.37,1859.58,2082.82,600.20,613.88,23.10,0000 0000 0000 0000 000000
2015-12-25 06:37:38,0.30,6.18,0.00,11.67,16.17,20.04,15.17,52.85,1006.36,2074.98,1967.60,1857.35,2080.43,599.90,613.44,23.15,0000 0000 0000 0000 000000
2015-12-25 06:42:40,0.29,6.19,0.00,11.69,16.17,20.11,15.09,52.53,1006.21,2074.99,1965.00,1855.25,2077.92,600.19,613.55,23.20,0000 0000 0000 0000 000000
2015-12-25 06:47:41,0.31,6.21,0.00,11.68,16.17,20.10,15.08,52.88,1005.88,2074.99,1962.19,1853.23,2075.49,600.06,613.25,23.25,0000 0000 0000 0000 000000
2015-12-25 06:52:42,0.31,6.22,0.00,11.68,16.17,20.09,15.11,53.03,1005.87,2074.99,1959.16,1851.07,2073.14,600.03,613.20,23.30,0000 0000 0000 0000 000000
2015-12-25 06:57:44,0.29,6.24,0.00,11.70,16.17,20.04,15.13,52.67,1005.96,2074.99,1956.58,1849.01,2070.85,599.90,613.08,23.35,0000 0000 0000 0000 000000
2015-12-25 07:02:45,0.24,6.25,0.00,11.67,16.17,20.08,15.03,52.23,1006.58,2074.99,1954.36,1847.34,2068.80,599.54,613.11,23.40,0000 0000 0000 0000 000000
2015-12-25 07:07:46,0.27,6.26,0.00,11.65,16.17,20.10,15.14,52.32,1007.30,2074.99,1952.16,1845.52,2066.79,600.16,614.24,23.45,0000 0000 0000 0000 000000
2015-12-25 07:12:48,0.23,6.28,0.00,11.67,16.18,20.13,15.17,52.41,1007.54,2074.99,1950.06,1843.92,2065.01,599.81,614.01,23.50,0000 0000 0000 0000 000000
2015-12-25 07:17:49,0.23,6.29,0.00,11.72,16.19,20.04,15.10,52.15,1007.61,2074.99,1948.05,1842.19,2063.00,600.00,614.18,23.55,0000 0000 0000 0000 000000
2015-12-25 07:22:50,0.27,6.30,0.00,11.75,16.19,20.06,15.10,52.55,1007.14,2074.98,1945.82,1840.32,2061.01,599.79,613.58,23.60,0000 0000 0000 0000 000000
2015-12-25 07:27:51,0.24,6.31,0.00,11.75,16.19,20.11,15.16,52.37,1006.88,2074.97,1943.71,1838.51,2058.95,600.22,613.82,23.65,0000 0000 0000 0000 000000
2015-12-25 07:32:53,0.28,6.33,0.00,11.75,16.21,20.18,15.13,52.50,1006.81,2074.97,1941.34,1836.74,2056.95,600.26,613.80,23.70,0000 0000 0000 0000 000000
2015-12-25 07:37:54,0.26,6.34,0.00,11.77,16.22,20.15,15.11,52.55,1006.43,2074.95,1939.08,1834.97,2054.79,600.01,613.37,23.75,0000 0000 0000 0000 000000
2015-12-25 07:42:55,0.37,6.36,0.00,11.80,16.22,20.13,15.24,52.69,1006.59,2074.97,1935.94,1832.65,2052.20,600.45,613.72,23.80,0000 0000 0000 0000 000000
2015-12-25 07:47:56,0.27,6.37,0.00,11.79,16.23,20.18,15.13,52.33,1007.43,2074.97,1933.22,1830.43,2049.81,599.96,613.80,23.85,0000 0000 0000 0000 000000
2015-12-25 07:52:57,0.24,6.39,0.00,11.81,16.24,20.09,15.19,52.15,1007.81,2074.95,1931.11,1828.83,2047.90,600.14,614.21,23.90,0000 0000 0000 0000 000000
2015-12-25 07:57:59,0.18,6.40,0.00,11.82,16.24,20.19,15.06,52.13,1007.41,2074.92,1929.13,1827.61,2046.66,599.94,613.86,23.95,0000 0000 0000 0000 000000
2015-12-25 08:03:00,0.23,6.41,0.00,11.86,16.27,20.25,15.16,52.64,1006.83,2074.92,1927.08,1826.09,2044.94,599.83,613.19,24.00,0000 0000 0000 0000 000000
2015-12-25 08:08:01,0.24,6.42,0.00,11.93,16.27,20.24,15.19,53.08,1006.37,2074.91,1924.94,1824.45,2043.26,600.55,613.48,24.05,0000 0000 0000 0000 000000
2015-12-25 08:13:03,0.35,6.43,0.00,11.94,16.29,20.29,15.20,53.37,1006.07,2074.75,1921.89,1822.16,2040.64,600.34,613.05,24.10,0000 0000 0000 0000 000000
2015-12-25 08:18:04,0.35,6.45,0.00,11.95,16.29,20.31,15.09,53.65,1005.88,2074.73,1918.88,1819.54,2037.82,599.75,612.35,24.15,0000 0000 0000 0000 000000
2015-12-25 08:23:06,0.27,6.47,0.00,11.95,16.32,20.28,15.07,53.24,1006.15,2074.61,1916.31,1817.56,2035.54,599.97,612.70,24.20,0000 0000 0000 0000 000000
2015-12-25 08:28:07,0.25,6.48,0.00,11.95,16.32,20.32,15.08,53.15,1006.39,2074.49,1914.12,1815.74,2033.53,600.02,612.89,24.25,0000 0000 0000 0000 000000
2015-12-25 08:33:08,0.18,6.49,0.00,11.95,16.33,20.28,15.14,52.89,1006.79,2074.19,1911.90,1813.94,2031.73,600.31,613.45,24.30,0000 0000 0000 0000 000000
2015-12-25 08:38:10,0.24,6.50,0.00,11.92,16.34,20.27,15.00,52.58,1006.93,2074.06,1910.07,1812.38,2029.87,600.03,613.41,24.35,0000 0000 0000 0000 000000
2015-12-25 08:43:11,0.25,6.51,0.00,11.93,16.34,20.35,15.14,53.13,1007.34,2074.04,1908.18,1810.72,2028.03,600.18,613.56,24.40,0000 0000 0000 0000 000000
2015-12-25 08:48:13,0.21,6.52,0.00,11.96,16.36,20.34,15.14,52.82,1007.67,2074.01,1906.15,1809.45,2026.36,599.78,613.49,24.45,0000 0000 0000 0000 000000
2015-12-25 08:53:14,0.25,6.54,0.00,11.97,16.37,20.32,15.12,52.90,1007.85,2074.01,1903.97,1807.79,2024.53,600.11,613.86,24.50,0000 0000 0000 0000 000000
2015-12-25 08:58:15,0.21,6.55,0.00,11.98,16.38,20.39,15.19,52.85,1008.12,2074.00,1902.08,1806.39,2022.83,600.47,614.48,24.55,0000 0000 0000 0000 000000
2015-12-25 09:03:17,0.28,6.56,0.00,11.99,16.39,20.32,15.18,53.30,1008.63,2074.00,1899.82,1804.57,2020.80,600.09,614.17,24.60,0000 0000 0000 0000 000000
2015-12-25 09:08:18,0.24,6.58,0.00,12.01,16.39,20.34,15.17,52.88,1008.84,2074.00,1897.68,1802.89,2018.76,600.17,614.42,24.65,0000 0000 0000 0000 000000
2015-12-25 09:13:19,0.23,6.59,0.00,12.01,16.42,20.41,15.09,52.89,1008.04,2074.00,1895.62,1801.43,2016.96,600.09,613.87,24.70,0000 0000 0000 0000 000000
2015-12-25 09:18:20,0.23,6.60,0.00,11.99,16.42,20.37,15.15,53.21,1006.69,2073.97,1893.30,1800.01,2015.18,599.89,612.91,24.75,0000 0000 0000 0000 000000
2015-12-25 09:23:22,0.32,6.61,0.00,12.00,16.43,20.38,15.16,52.92,1006.26,2073.99,1890.87,1798.08,2013.04,600.36,613.01,24.80,0000 0000 0000 0000 000000
2015-12-25 09:28:23,0.24,6.63,0.00,12.01,16.44,20.38,15.21,52.94,1006.80,2073.98,1888.76,1796.33,2011.12,600.85,613.92,24.85,0000 0000 0000 0000 000000
2015-12-25 09:33:24,0.27,6.64,0.00,12.01,16.45,20.46,15.19,52.92,1007.53,2073.98,1886.66,1794.48,2008.88,600.22,613.70,24.90,0000 0000 0000 0000 000000
2015-12-25 09:38:26,0.21,6.65,0.00,12.03,16.47,20.40,15.13,52.75,1008.17,2073.96,1884.62,1792.88,2007.27,600.04,613.94,24.95,0000 0000 0000 0000 000000
2015-12-25 09:43:27,0.26,6.66,0.00,12.05,16.47,20.40,15.11,52.90,1007.72,2073.93,1882.22,1791.44,2005.48,600.22,613.74,25.00,0000 0000 0000 0000 000000
2015-12-25 09:48:28,0.27,6.68,0.00,12.07,16.49,20.50,15.10,53.17,1007.05,2073.90,1879.85,1789.54,2003.60,600.08,613.13,25.05,0000 0000 0000 0000 000000
2015-12-25 09:53:29,0.25,6.69,0.00,12.05,16.49,20.53,15.11,52.74,1006.79,2073.72,1877.60,1787.65,2001.58,599.74,612.69,25.10,0000 0000 0000 0000 000000
2015-12-25 09:58:31,0.27,6.71,0.00,12.03,16.51,20.53,15.10,53.03,1006.79,2073.59,1875.30,1785.79,1999.53,600.09,613.13,25.15,0000 0000 0000 0000 000000
2015-12-25 10:03:32,0.22,6.72,0.00,12.06,16.52,20.50,15.10,53.00,1006.85,2073.36,1872.98,1784.08,1997.44,600.34,613.40,25.20,0000 0000 0000 0000 000000
2015-12-25 10:08:33,0.29,6.73,0.00,12.05,16.52,20.52,15.10,53.01,1006.99,2073.43,1871.00,1782.35,1995.65,599.62,612.64,25.25,0000 0000 0000 0000 000000
2015-12-25 10:13:35,0.19,6.74,0.00,12.06,16.54,20.52,15.01,52.48,1007.82,2073.21,1869.03,1780.80,1993.88,599.67,613.19,25.30,0000 0000 0000 0000 000000
2015-12-25 10:18:36,0.24,6.76,0.00,12.06,16.54,20.47,15.09,52.37,1008.58,2073.08,1867.09,1779.22,1991.99,599.88,614.04,25.35,0000 0000 0000 0000 000000
2015-12-25 10:23:37,0.22,6.77,0.00,12.07,16.54,20.48,15.14,52.39,1008.81,2073.04,1864.91,1777.82,1990.33,599.92,613.93,25.40,0000 0000 0000 0000 000000
2015-12-25 10:28:39,0.23,6.78,0.00,12.09,16.55,20.52,15.14,52.33,1008.78,2073.02,1862.97,1776.45,1988.71,599.94,613.94,25.45,0000 0000 0000 0000 000000
2015-12-25 10:33:40,0.21,6.79,0.00,12.06,16.57,20.51,15.14,52.10,1008.84,2073.01,1861.07,1774.98,1987.13,600.21,614.39,25.50,0000 0000 0000 0000 000000
2015-12-25 10:38:41,0.19,6.80,0.00,12.07,16.57,20.55,15.13,52.31,1009.05,2073.00,1859.23,1773.84,1985.57,599.78,614.01,25.55,0000 0000 0000 0000 000000
2015-12-25 10:43:43,0.20,6.81,0.00,12.10,16.57,20.54,15.16,52.32,1009.15,2073.00,1857.54,1772.61,1984.13,599.93,614.23,25.60,0000 0000 0000 0000 000000
2015-12-25 10:48:44,0.20,6.82,0.00,12.13,16.58,20.45,15.08,52.23,1008.83,2073.00,1855.80,1771.50,1982.78,599.96,613.97,25.65,0000 0000 0000 0000 000000
2015-12-25 10:53:46,0.20,6.83,0.00,12.15,16.59,20.54,15.09,52.21,1008.80,2073.00,1854.02,1770.07,1981.38,600.14,614.05,25.70,0000 0000 0000 0000 000000
2015-12-25 10:58:47,0.21,6.84,0.00,12.16,16.59,20.55,15.15,52.37,1008.80,2073.00,1852.20,1768.73,1979.82,600.07,613.98,25.75,0000 0000 0000 0000 000000
2015-12-25 11:03:48,0.17,6.85,0.00,12.20,16.61,20.54,15.07,52.41,1008.61,2073.00,1850.78,1767.69,1978.51,600.06,613.77,25.80,0000 0000 0000 0000 000000
2015-12-25 11:08:50,0.20,6.86,0.00,12.24,16.62,20.54,15.13,52.38,1008.65,2072.99,1849.18,1766.39,1977.03,600.37,614.06,25.85,0000 0000 0000 0000 000000
2015-12-25 11:13:51,0.21,6.87,0.00,12.29,16.63,20.67,15.08,52.29,1008.94,2072.98,1847.35,1764.86,1975.28,599.64,613.35,25.90,0000 0000 0000 0000 000000
2015-12-25 11:18:52,0.22,6.88,0.00,12.29,16.64,20.63,15.09,52.45,1009.29,2072.97,1845.53,1763.64,1973.72,599.70,613.54,25.95,0000 0000 0000 0000 000000
2015-12-25 11:23:53,0.24,6.89,0.00,12.31,16.64,20.61,15.09,52.41,1009.48,2072.95,1843.63,1762.08,1972.01,599.38,613.30,26.00,0000 0000 0000 0000 000000
2015-12-25 11:28:54,0.22,6.90,0.00,12.32,16.67,20.69,15.04,52.24,1009.76,2072.90,1841.72,1760.56,1970.27,599.44,613.54,26.05,0000 0000 0000 0000 000000
2015-12-25 11:33:55,0.23,6.92,0.00,12.32,16.67,20.68,15.08,52.02,1009.78,2072.74,1839.71,1759.02,1968.57,600.04,614.18,26.10,0000 0000 0000 0000 000000
2015-12-25 11:38:57,0.18,6.93,0.00,12.36,16.68,20.64,15.07,51.96,1009.65,2072.47,1837.70,1757.61,1966.99,599.90,614.02,26.15,0000 0000 0000 0000 000000
2015-12-25 11:43:58,0.19,6.94,0.00,12.38,16.69,20.59,15.08,52.22,1009.21,2072.28,1835.74,1756.37,1965.49,599.79,613.50,26.21,0000 0000 0000 0000 000000
2015-12-25 11:48:59,0.20,6.95,0.00,12.42,16.69,20.71,15.10,52.34,1009.05,2072.16,1833.75,1755.04,1963.91,599.86,613.45,26.26,0000 0000 0000 0000 000000
2015-12-25 11:54:00,0.21,6.96,0.00,12.43,16.72,20.63,15.06,52.07,1009.32,2072.16,1832.04,1753.76,1962.50,600.06,613.71,26.31,0000 0000 0000 0000 000000
2015-12-25 11:59:02,0.21,6.97,0.00,12.43,16.72,20.71,15.17,52.08,1009.75,2072.08,1830.12,1752.44,1960.89,600.18,614.14,26.36,0000 0000 0000 0000 000000
2015-12-25 12:04:03,0.20,6.98,0.00,12.46,16.74,20.70,15.10,52.10,1010.02,2072.04,1828.20,1751.07,1959.43,599.82,613.85,26.41,0000 0000 0000 0000 000000
2015-12-25 12:09:05,0.20,6.99,0.00,12.48,16.74,20.66,15.12,52.13,1010.02,2072.02,1826.61,1749.80,1957.90,600.01,614.00,26.46,0000 0000 0000 0000 000000
2015-12-25 12:14:06,0.22,7.00,0.00,12.51,16.77,20.69,15.12,51.92,1009.72,2072.02,1824.95,1748.54,1956.50,600.19,614.09,26.51,0000 0000 0000 0000 000000
2015-12-25 12:19:07,0.20,7.01,0.00,12.51,16.77,20.72,15.08,51.93,1009.38,2072.01,1822.89,1747.31,1955.01,599.73,613.30,26.56,0000 0000 0000 0000 000000
2015-12-25 12:24:09,0.18,7.02,0.00,12.52,16.79,20.74,15.13,52.11,1009.05,2072.00,1821.31,1746.07,1953.66,600.09,613.47,26.61,0000 0000 0000 0000 000000
2015-12-25 12:29:10,0.18,7.03,0.00,12.54,16.81,20.81,15.10,52.39,1008.92,2072.00,1819.73,1744.95,1952.39,599.85,613.09,26.66,0000 0000 0000 0000 000000
2015-12-25 12:34:11,0.20,7.04,0.00,12.58,16.82,20.82,15.09,52.26,1009.24,2071.99,1818.21,1743.72,1950.92,599.89,613.29,26.71,0000 0000 0000 0000 000000
2015-12-25 12:39:12,0.22,7.05,0.00,12.62,16.84,20.87,14.98,52.14,1009.38,2071.99,1816.35,1742.43,1949.32,599.79,613.07,26.76,0000 0000 0000 0000 000000
2015-12-25 12:44:14,0.22,7.06,0.00,12.65,16.86,20.89,15.06,52.24,1009.75,2071.97,1814.41,1741.07,1947.73,599.97,613.49,26.81,0000 0000 0000 0000 000000
2015-12-25 12:49:16,0.23,7.07,0.00,12.63,16.87,20.88,15.09,52.06,1009.79,2071.95,1812.48,1739.68,1946.16,600.00,613.57,26.86,0000 0000 0000 0000 000000
2015-12-25 12:54:17,0.22,7.08,0.00,12.64,16.89,20.92,15.13,52.25,1009.83,2071.89,1810.51,1738.32,1944.59,599.97,613.41,26.91,0000 0000 0000 0000 000000